| time (UTC) | temp F | wind direction | speed MPH | gust MPH | rain 1hr in | rain 24hr in | rain mn in | humidity % | barometer mb |
| 20260509035520 | 60 | 46 | 11.0 | 16.0 | 0.00 | 0.00 | 0.00 | 1 | 1011.0 |
| 20260509035018 | 60 | 22 | 10.0 | 19.0 | 0.00 | 0.00 | 0.00 | 1 | 1010.8 |
| 20260509034617 | 60 | 34 | 11.0 | 19.0 | 0.00 | 0.00 | 0.00 | 1 | 1010.9 |
| 20260509034020 | 60 | 37 | 10.0 | 16.0 | 0.00 | 0.00 | 0.00 | 1 | 1010.8 |
| 20260509033519 | 60 | 29 | 9.0 | 14.0 | 0.00 | 0.00 | 0.00 | 1 | 1010.8 |
| 20260509033054 | 60 | 30 | 9.0 | 14.0 | 0.00 | 0.00 | 0.00 | 1 | 1010.9 |
| 20260509032519 | 61 | 34 | 10.0 | 18.0 | 0.00 | 0.00 | 0.00 | 1 | 1010.8 |
| 20260509032018 | 61 | 32 | 14.0 | 19.0 | 0.00 | 0.00 | 0.00 | 1 | 1010.6 |
| 20260509031557 | 61 | 54 | 11.0 | 19.0 | 0.00 | 0.00 | 0.00 | 1 | 1010.4 |
| 20260509031021 | 61 | 27 | 9.0 | 16.0 | 0.00 | 0.00 | 0.00 | 1 | 1010.6 |
| 20260509030520 | 61 | 24 | 11.0 | 15.0 | 0.00 | 0.00 | 0.00 | 1 | 1010.4 |
| 20260509030108 | 60 | 14 | 9.0 | 14.0 | 0.00 | 0.00 | 0.00 | 1 | 1010.3 |
| 20260509025521 | 60 | 14 | 6.0 | 9.0 | 0.00 | 0.00 | 0.00 | 1 | 1010.3 |
| 20260509025022 | 60 | 16 | 5.0 | 8.0 | 0.00 | 0.00 | 0.00 | 1 | 1010.2 |
| 20260509024547 | 61 | 13 | 3.0 | 10.0 | 0.00 | 0.00 | 0.00 | 1 | 1010.2 |
| 20260509024017 | 61 | 13 | 7.0 | 11.0 | 0.00 | 0.00 | 0.00 | 1 | 1010.1 |
| 20260509023517 | 61 | 5 | 8.0 | 11.0 | 0.00 | 0.00 | 0.00 | 1 | 1009.9 |
| 20260509023049 | 62 | 5 | 7.0 | 11.0 | 0.00 | 0.00 | 0.00 | 1 | 1009.9 |
| 20260509022516 | 62 | 5 | 8.0 | 13.0 | 0.00 | 0.00 | 0.00 | 1 | 1009.8 |
| 20260509022017 | 62 | 11 | 10.0 | 13.0 | 0.00 | 0.00 | 0.00 | 1 | 1009.6 |
| 20260509021602 | 62 | 360 | 8.0 | 11.0 | 0.00 | 0.00 | 0.00 | 1 | 1009.8 |
| 20260509021021 | 63 | 5 | 6.0 | 12.0 | 0.00 | 0.00 | 0.00 | 1 | 1009.8 |
| 20260509020521 | 63 | 11 | 7.0 | 14.0 | 0.00 | 0.00 | 0.00 | 1 | 1009.7 |
| 20260509020057 | 64 | 5 | 10.0 | 14.0 | 0.00 | 0.00 | 0.00 | 1 | 1009.6 |
| 20260509015520 | 64 | 10 | 9.0 | 14.0 | 0.00 | 0.00 | 0.00 | 1 | 1009.6 |
| 20260509015017 | 64 | 5 | 10.0 | 17.0 | 0.00 | 0.00 | 0.00 | 1 | 1009.6 |
| 20260509014554 | 64 | 348 | 12.0 | 18.0 | 0.00 | 0.00 | 0.00 | 1 | 1009.6 |
| 20260509014021 | 65 | 360 | 12.0 | 18.0 | 0.00 | 0.00 | 0.00 | 1 | 1009.6 |
| 20260509013523 | 65 | 360 | 13.0 | 16.0 | 0.00 | 0.00 | 0.00 | 1 | 1009.8 |
| 20260509013059 | 65 | 338 | 11.0 | 14.0 | 0.00 | 0.00 | 0.00 | 1 | 1009.8 |
| 20260509012513 | 66 | 360 | 11.0 | 17.0 | 0.00 | 0.00 | 0.00 | 1 | 1009.6 |
| 20260509012016 | 66 | 11 | 11.0 | 17.0 | 0.00 | 0.00 | 0.00 | 1 | 1009.7 |
| 20260509011549 | 66 | 355 | 12.0 | 20.0 | 0.00 | 0.00 | 0.00 | 1 | 1009.6 |
| 20260509011020 | 66 | 337 | 14.0 | 19.0 | 0.00 | 0.00 | 0.00 | 1 | 1009.7 |
| 20260509010519 | 66 | 351 | 13.0 | 20.0 | 0.00 | 0.00 | 0.00 | 1 | 1009.8 |
| 20260509010055 | 66 | 355 | 16.0 | 23.0 | 0.00 | 0.00 | 0.00 | 1 | 1009.8 |
| 20260509005517 | 67 | 350 | 18.0 | 23.0 | 0.00 | 0.00 | 0.00 | 1 | 1009.6 |
| 20260509005017 | 67 | 321 | 16.0 | 22.0 | 0.00 | 0.00 | 0.00 | 1 | 1009.9 |
| 20260509004541 | 67 | 320 | 16.0 | 20.0 | 0.00 | 0.00 | 0.00 | 1 | 1009.7 |
| 20260509004013 | 67 | 355 | 12.0 | 22.0 | 0.00 | 0.00 | 0.00 | 1 | 1009.7 |
| 20260509003515 | 67 | 336 | 18.0 | 22.0 | 0.00 | 0.00 | 0.00 | 1 | 1009.5 |
| 20260509003104 | 68 | 323 | 17.0 | 22.0 | 0.00 | 0.00 | 0.00 | 1 | 1009.6 |
| 20260509002513 | 68 | 360 | 15.0 | 23.0 | 0.00 | 0.00 | 0.00 | 1 | 1009.7 |
| 20260509002014 | 68 | 333 | 17.0 | 23.0 | 0.00 | 0.00 | 0.00 | 1 | 1009.5 |
| 20260509001539 | 68 | 339 | 17.0 | 23.0 | 0.00 | 0.00 | 0.00 | 1 | 1009.3 |
| 20260509001013 | 68 | 309 | 18.0 | 23.0 | 0.00 | 0.00 | 0.00 | 1 | 1009.6 |
| 20260509000519 | 69 | 300 | 15.0 | 27.0 | 0.00 | 0.00 | 0.00 | 1 | 1009.5 |
| 20260509000106 | 69 | 294 | 19.0 | 27.0 | 0.00 | 0.00 | 0.00 | 1 | 1009.5 |
| 20260508235514 | 69 | 300 | 15.0 | 23.0 | 0.00 | 0.00 | 0.00 | 1 | 1009.5 |
| 20260508235016 | 68 | 336 | 15.0 | 26.0 | 0.00 | 0.00 | 0.00 | 1 | 1009.3 |
| 20260508234550 | 68 | 336 | 17.0 | 26.0 | 0.00 | 0.00 | 0.00 | 1 | 1009.5 |
| 20260508234010 | 69 | 303 | 20.0 | 27.0 | 0.00 | 0.00 | 0.00 | 1 | 1009.5 |
| 20260508233528 | 69 | 336 | 19.0 | 27.0 | 0.00 | 0.00 | 0.00 | 1 | 1009.5 |
| 20260508233311 | 69 | 303 | 16.0 | 24.0 | 0.00 | 0.00 | 0.00 | 1 | 1009.6 |
| 20260508232521 | 69 | 314 | 18.0 | 28.0 | 0.00 | 0.00 | 0.00 | 1 | 1009.6 |
| 20260508232020 | 69 | 294 | 20.0 | 32.0 | 0.00 | 0.00 | 0.00 | 1 | 1009.8 |
| 20260508231609 | 70 | 313 | 17.0 | 32.0 | 0.00 | 0.00 | 0.00 | 1 | 1009.2 |
| 20260508231017 | 70 | 325 | 18.0 | 30.0 | 0.00 | 0.00 | 0.00 | 1 | 1009.4 |
| 20260508230518 | 71 | 360 | 20.0 | 29.0 | 0.00 | 0.00 | 0.00 | 1 | 1009.4 |
| 20260508230107 | 71 | 270 | 14.0 | 23.0 | 0.00 | 0.00 | 0.00 | 1 | 1009.6 |
| 20260508225523 | 71 | 313 | 18.0 | 28.0 | 0.00 | 0.00 | 0.00 | 1 | 1009.4 |
| 20260508225027 | 70 | 286 | 19.0 | 28.0 | 0.00 | 0.00 | 0.00 | 1 | 1009.5 |
| 20260508224546 | 70 | 348 | 19.0 | 27.0 | 0.00 | 0.00 | 0.00 | 1 | 1009.4 |
| 20260508224014 | 71 | 300 | 20.0 | 30.0 | 0.00 | 0.00 | 0.00 | 1 | 1009.6 |
| 20260508223519 | 71 | 309 | 19.0 | 30.0 | 0.00 | 0.00 | 0.00 | 1 | 1009.3 |
| 20260508223051 | 70 | 317 | 19.0 | 27.0 | 0.00 | 0.00 | 0.00 | 1 | 1009.6 |
| 20260508222516 | 70 | 304 | 17.0 | 28.0 | 0.00 | 0.00 | 0.00 | 1 | 1009.7 |
| 20260508222013 | 71 | 327 | 21.0 | 28.0 | 0.00 | 0.00 | 0.00 | 1 | 1009.6 |
| 20260508221547 | 71 | 315 | 19.0 | 30.0 | 0.00 | 0.00 | 0.00 | 1 | 1009.4 |
| 20260508221028 | 71 | 331 | 20.0 | 30.0 | 0.00 | 0.00 | 0.00 | 1 | 1009.4 |
| 20260508220521 | 70 | 298 | 19.0 | 29.0 | 0.00 | 0.00 | 0.00 | 1 | 1009.5 |
| 20260508220047 | 71 | 311 | 22.0 | 30.0 | 0.00 | 0.00 | 0.00 | 1 | 1010.0 |
| 20260508215516 | 71 | 323 | 22.0 | 32.0 | 0.00 | 0.00 | 0.00 | 1 | 1009.5 |
| 20260508215020 | 70 | 314 | 19.0 | 27.0 | 0.00 | 0.00 | 0.00 | 1 | 1009.8 |
| 20260508214546 | 71 | 329 | 21.0 | 28.0 | 0.00 | 0.00 | 0.00 | 1 | 1009.5 |
| 20260508214016 | 71 | 317 | 18.0 | 28.0 | 0.00 | 0.00 | 0.00 | 1 | 1009.7 |
| 20260508213514 | 71 | 306 | 18.0 | 26.0 | 0.00 | 0.00 | 0.00 | 1 | 1009.8 |
| 20260508213055 | 71 | 254 | 18.0 | 28.0 | 0.00 | 0.00 | 0.00 | 1 | 1010.0 |
| 20260508212515 | 71 | 271 | 15.0 | 28.0 | 0.00 | 0.00 | 0.00 | 1 | 1010.2 |
| 20260508212013 | 71 | 298 | 20.0 | 29.0 | 0.00 | 0.00 | 0.00 | 1 | 1010.1 |
| 20260508211556 | 70 | 311 | 18.0 | 29.0 | 0.00 | 0.00 | 0.00 | 1 | 1009.9 |
| 20260508211020 | 71 | 303 | 16.0 | 27.0 | 0.00 | 0.00 | 0.00 | 1 | 1010.1 |
| 20260508210513 | 70 | 302 | 17.0 | 29.0 | 0.00 | 0.00 | 0.00 | 1 | 1009.9 |
| 20260508210055 | 71 | 302 | 18.0 | 29.0 | 0.00 | 0.00 | 0.00 | 1 | 1009.6 |
| 20260508205517 | 71 | 317 | 18.0 | 29.0 | 0.00 | 0.00 | 0.00 | 1 | 1009.7 |
| 20260508205017 | 70 | 271 | 15.0 | 31.0 | 0.00 | 0.00 | 0.00 | 1 | 1010.1 |
| 20260508204552 | 71 | 303 | 20.0 | 34.0 | 0.00 | 0.00 | 0.00 | 1 | 1010.1 |
| 20260508204016 | 70 | 321 | 25.0 | 34.0 | 0.00 | 0.00 | 0.00 | 1 | 1009.7 |
| 20260508203515 | 70 | 307 | 15.0 | 28.0 | 0.00 | 0.00 | 0.00 | 1 | 1009.9 |
| 20260508203053 | 70 | 281 | 16.0 | 28.0 | 0.00 | 0.00 | 0.00 | 1 | 1010.0 |
| 20260508202516 | 70 | 277 | 16.0 | 30.0 | 0.00 | 0.00 | 0.00 | 1 | 1010.2 |
| 20260508202016 | 70 | 260 | 20.0 | 30.0 | 0.00 | 0.00 | 0.00 | 1 | 1009.9 |
| 20260508201609 | 70 | 270 | 14.0 | 28.0 | 0.00 | 0.00 | 0.00 | 1 | 1010.1 |
| 20260508201019 | 70 | 286 | 20.0 | 28.0 | 0.00 | 0.00 | 0.00 | 1 | 1010.1 |
| 20260508200527 | 70 | 252 | 15.0 | 25.0 | 0.00 | 0.00 | 0.00 | 1 | 1010.2 |
| 20260508200109 | 70 | 290 | 17.0 | 25.0 | 0.00 | 0.00 | 0.00 | 1 | 1010.2 |
| 20260508195519 | 70 | 308 | 16.0 | 25.0 | 0.00 | 0.00 | 0.00 | 1 | 1010.1 |
| 20260508195014 | 70 | 262 | 20.0 | 25.0 | 0.00 | 0.00 | 0.00 | 1 | 1010.1 |
| 20260508194559 | 70 | 299 | 17.0 | 27.0 | 0.00 | 0.00 | 0.00 | 1 | 1010.0 |
| 20260508194017 | 70 | 297 | 16.0 | 25.0 | 0.00 | 0.00 | 0.00 | 1 | 1010.2 |
| 20260508193516 | 70 | 308 | 17.0 | 28.0 | 0.00 | 0.00 | 0.00 | 1 | 1010.1 |
| 20260508193111 | 70 | 280 | 18.0 | 27.0 | 0.00 | 0.00 | 0.00 | 1 | 1010.1 |
| 20260508192516 | 70 | 274 | 18.0 | 29.0 | 0.00 | 0.00 | 0.00 | 1 | 1010.5 |
| 20260508192015 | 70 | 299 | 15.0 | 29.0 | 0.00 | 0.00 | 0.00 | 1 | 1010.3 |
| 20260508191550 | 70 | 280 | 13.0 | 25.0 | 0.00 | 0.00 | 0.00 | 1 | 1010.3 |
| 20260508191020 | 70 | 277 | 18.0 | 28.0 | 0.00 | 0.00 | 0.00 | 1 | 1010.4 |
| 20260508190517 | 69 | 308 | 12.0 | 30.0 | 0.00 | 0.00 | 0.00 | 1 | 1010.4 |
| 20260508190106 | 70 | 267 | 11.0 | 25.0 | 0.00 | 0.00 | 0.00 | 1 | 1010.5 |
| 20260508185520 | 69 | 225 | 19.0 | 25.0 | 0.00 | 0.00 | 0.00 | 1 | 1010.6 |
| 20260508185018 | 69 | 270 | 12.0 | 21.0 | 0.00 | 0.00 | 0.00 | 1 | 1010.6 |
| 20260508184602 | 70 | 254 | 15.0 | 22.0 | 0.00 | 0.00 | 0.00 | 1 | 1010.8 |
| 20260508184017 | 69 | 231 | 16.0 | 22.0 | 0.00 | 0.00 | 0.00 | 1 | 1010.8 |
| 20260508183517 | 67 | 246 | 11.0 | 37.0 | 0.00 | 0.00 | 0.00 | 1 | 1010.8 |
| 20260508183108 | 70 | 317 | 17.0 | 37.0 | 0.00 | 0.00 | 0.00 | 1 | 1010.8 |
| 20260508182518 | 69 | 250 | 10.0 | 32.0 | 0.00 | 0.00 | 0.00 | 1 | 1011.1 |
| 20260508182015 | 68 | 267 | 18.0 | 27.0 | 0.00 | 0.00 | 0.00 | 1 | 1011.1 |
| 20260508181609 | 68 | 264 | 11.0 | 26.0 | 0.00 | 0.00 | 0.00 | 1 | 1011.2 |
| 20260508181020 | 68 | 260 | 18.0 | 26.0 | 0.00 | 0.00 | 0.00 | 1 | 1011.1 |
| 20260508180524 | 68 | 260 | 15.0 | 24.0 | 0.00 | 0.00 | 0.00 | 1 | 1011.1 |
| 20260508180112 | 68 | 255 | 16.0 | 24.0 | 0.00 | 0.00 | 0.00 | 1 | 1011.1 |
| 20260508175525 | 67 | 268 | 13.0 | 22.0 | 0.00 | 0.00 | 0.00 | 1 | 1011.1 |
| 20260508175016 | 66 | 265 | 11.0 | 20.0 | 0.00 | 0.00 | 0.00 | 1 | 1011.2 |
| 20260508174609 | 66 | 229 | 13.0 | 19.0 | 0.00 | 0.00 | 0.00 | 1 | 1011.3 |
| 20260508174022 | 65 | 289 | 9.0 | 19.0 | 0.00 | 0.00 | 0.00 | 1 | 1011.4 |
| 20260508173517 | 66 | 244 | 13.0 | 18.0 | 0.00 | 0.00 | 0.00 | 1 | 1011.5 |
| 20260508173057 | 66 | 271 | 11.0 | 17.0 | 0.00 | 0.00 | 0.00 | 1 | 1011.4 |
| 20260508172517 | 66 | 286 | 10.0 | 19.0 | 0.00 | 0.00 | 0.00 | 1 | 1011.5 |
| 20260508172021 | 65 | 302 | 10.0 | 19.0 | 0.00 | 0.00 | 0.00 | 1 | 1011.7 |
| 20260508171608 | 65 | 279 | 12.0 | 19.0 | 0.00 | 0.00 | 0.00 | 1 | 1011.8 |
| 20260508171022 | 65 | 275 | 12.0 | 19.0 | 0.00 | 0.00 | 0.00 | 1 | 1011.7 |
| 20260508170521 | 66 | 275 | 11.0 | 21.0 | 0.00 | 0.00 | 0.00 | 1 | 1011.8 |
| 20260508170107 | 65 | 246 | 12.0 | 21.0 | 0.00 | 0.00 | 0.00 | 1 | 1011.8 |
| 20260508165519 | 65 | 244 | 12.0 | 18.0 | 0.00 | 0.00 | 0.00 | 1 | 1011.8 |
| 20260508165015 | 64 | 259 | 13.0 | 17.0 | 0.00 | 0.00 | 0.00 | 1 | 1011.7 |
| 20260508164551 | 64 | 263 | 10.0 | 18.0 | 0.00 | 0.00 | 0.00 | 1 | 1011.7 |
| 20260508164014 | 64 | 262 | 10.0 | 18.0 | 0.00 | 0.00 | 0.00 | 1 | 1011.8 |
| 20260508163514 | 63 | 284 | 11.0 | 17.0 | 0.00 | 0.00 | 0.00 | 1 | 1011.7 |
| 20260508163110 | 63 | 293 | 11.0 | 17.0 | 0.00 | 0.00 | 0.00 | 1 | 1011.8 |
| 20260508162517 | 63 | 294 | 11.0 | 17.0 | 0.00 | 0.00 | 0.00 | 1 | 1011.8 |
| 20260508162016 | 62 | 276 | 10.0 | 16.0 | 0.00 | 0.00 | 0.00 | 1 | 1011.7 |
| 20260508161541 | 62 | 242 | 9.0 | 14.0 | 0.00 | 0.00 | 0.00 | 1 | 1011.8 |
| 20260508161020 | 61 | 292 | 6.0 | 17.0 | 0.00 | 0.00 | 0.00 | 1 | 1011.9 |
| 20260508160520 | 61 | 259 | 10.0 | 17.0 | 0.00 | 0.00 | 0.00 | 1 | 1012.1 |
| 20260508160059 | 60 | 212 | 4.0 | 12.0 | 0.00 | 0.00 | 0.00 | 1 | 1012.1 |
| 20260508155511 | 61 | 231 | 7.0 | 12.0 | 0.00 | 0.00 | 0.00 | 1 | 1012.1 |
| 20260508155015 | 60 | 249 | 5.0 | 10.0 | 0.00 | 0.00 | 0.00 | 1 | 1012.1 |
| 20260508154601 | 59 | 224 | 5.0 | 10.0 | 0.00 | 0.00 | 0.00 | 1 | 1012.3 |
| 20260508154015 | 58 | 241 | 5.0 | 10.0 | 0.00 | 0.00 | 0.00 | 1 | 1012.4 |
| 20260508153518 | 58 | 220 | 5.0 | 11.0 | 0.00 | 0.00 | 0.00 | 1 | 1012.4 |
| 20260508153040 | 58 | 213 | 6.0 | 11.0 | 0.00 | 0.00 | 0.00 | 1 | 1012.7 |
| 20260508152516 | 58 | 223 | 5.0 | 8.0 | 0.00 | 0.00 | 0.00 | 1 | 1012.3 |
| 20260508152015 | 58 | 231 | 4.0 | 7.0 | 0.00 | 0.00 | 0.00 | 1 | 1012.5 |
| 20260508151550 | 57 | 261 | 4.0 | 8.0 | 0.00 | 0.00 | 0.00 | 1 | 1012.1 |
| 20260508151022 | 56 | 243 | 5.0 | 8.0 | 0.00 | 0.00 | 0.00 | 1 | 1012.7 |
| 20260508150522 | 56 | 235 | 6.0 | 8.0 | 0.00 | 0.00 | 0.00 | 1 | 1012.5 |
| 20260508150048 | 56 | 220 | 5.0 | 9.0 | 0.00 | 0.00 | 0.00 | 1 | 1012.7 |
| 20260508145516 | 56 | 242 | 5.0 | 9.0 | 0.00 | 0.00 | 0.00 | 1 | 1012.5 |
| 20260508145015 | 56 | 224 | 5.0 | 9.0 | 0.00 | 0.00 | 0.00 | 1 | 1012.6 |
| 20260508144546 | 56 | 230 | 5.0 | 9.0 | 0.00 | 0.00 | 0.00 | 1 | 1012.5 |
| 20260508144017 | 55 | 264 | 4.0 | 7.0 | 0.00 | 0.00 | 0.00 | 1 | 1012.5 |
| 20260508143516 | 54 | 264 | 4.0 | 7.0 | 0.00 | 0.00 | 0.00 | 1 | 1012.7 |
| 20260508143048 | 53 | 250 | 4.0 | 12.0 | 0.00 | 0.00 | 0.00 | 1 | 1012.8 |
| 20260508142516 | 52 | 237 | 7.0 | 12.0 | 0.00 | 0.00 | 0.00 | 1 | 1012.8 |
| 20260508142020 | 51 | 238 | 9.0 | 12.0 | 0.00 | 0.00 | 0.00 | 1 | 1012.8 |
| 20260508141552 | 51 | 244 | 10.0 | 12.0 | 0.00 | 0.00 | 0.00 | 1 | 1012.8 |
| 20260508141009 | 51 | 250 | 9.0 | 12.0 | 0.00 | 0.00 | 0.00 | 1 | 1012.9 |
| 20260508140541 | 50 | 250 | 8.0 | 10.0 | 0.00 | 0.00 | 0.00 | 1 | 1012.8 |
| 20260508140058 | 50 | 239 | 7.0 | 9.0 | 0.00 | 0.00 | 0.00 | 1 | 1012.8 |
| 20260508135521 | 51 | 238 | 8.0 | 11.0 | 0.00 | 0.00 | 0.00 | 1 | 1012.7 |
| 20260508135023 | 52 | 223 | 9.0 | 11.0 | 0.00 | 0.00 | 0.00 | 1 | 1012.7 |
| 20260508134546 | 51 | 16 | 0.0 | 1.0 | 0.00 | 0.00 | 0.00 | 1 | 1012.8 |
| 20260508134016 | 50 | 16 | 0.0 | 2.0 | 0.00 | 0.00 | 0.00 | 1 | 1012.8 |
| 20260508133523 | 50 | 16 | 0.0 | 2.0 | 0.00 | 0.00 | 0.00 | 1 | 1012.7 |
| 20260508133347 | 49 | 16 | 0.0 | 2.0 | 0.00 | 0.00 | 0.00 | 1 | 1012.8 |
| 20260508132518 | 49 | 346 | 1.0 | 3.0 | 0.00 | 0.00 | 0.00 | 1 | 1012.7 |
| 20260508132017 | 48 | 346 | 1.0 | 3.0 | 0.00 | 0.00 | 0.00 | 1 | 1012.9 |
| 20260508131848 | 47 | 346 | 2.0 | 4.0 | 0.00 | 0.00 | 0.00 | 1 | 1012.8 |
| 20260508131021 | 46 | 346 | 2.0 | 4.0 | 0.00 | 0.00 | 0.00 | 1 | 1012.8 |
| 20260508130521 | 45 | 346 | 3.0 | 4.0 | 0.00 | 0.00 | 0.00 | 1 | 1013.0 |
| 20260508130115 | 44 | 346 | 2.0 | 4.0 | 0.00 | 0.00 | 0.00 | 1 | 1013.0 |
| 20260508125524 | 44 | 346 | 2.0 | 4.0 | 0.00 | 0.00 | 0.00 | 1 | 1012.9 |
| 20260508125026 | 43 | 346 | 3.0 | 5.0 | 0.00 | 0.00 | 0.00 | 1 | 1013.0 |
| 20260508124611 | 42 | 346 | 4.0 | 5.0 | 0.00 | 0.00 | 0.00 | 1 | 1013.0 |
| 20260508124018 | 40 | 346 | 3.0 | 5.0 | 0.00 | 0.00 | 0.00 | 1 | 1012.9 |
| 20260508123529 | 39 | 346 | 3.0 | 6.0 | 0.00 | 0.00 | 0.00 | 1 | 1012.9 |
| 20260508123046 | 38 | 346 | 4.0 | 6.0 | 0.00 | 0.00 | 0.00 | 1 | 1013.0 |
| 20260508122511 | 37 | 346 | 3.0 | 5.0 | 0.00 | 0.00 | 0.00 | 1 | 1013.0 |
| 20260508122029 | 36 | 346 | 3.0 | 5.0 | 0.00 | 0.00 | 0.00 | 1 | 1013.1 |
| 20260508121550 | 36 | 346 | 2.0 | 5.0 | 0.00 | 0.00 | 0.00 | 1 | 1013.1 |
| 20260508121017 | 36 | 346 | 3.0 | 4.0 | 0.00 | 0.00 | 0.00 | 1 | 1013.0 |
| 20260508120517 | 35 | 346 | 2.0 | 4.0 | 0.00 | 0.00 | 0.00 | 1 | 1012.9 |
| 20260508120052 | 35 | 346 | 2.0 | 4.0 | 0.00 | 0.00 | 0.00 | 1 | 1013.0 |
| 20260508115518 | 35 | 346 | 2.0 | 4.0 | 0.00 | 0.00 | 0.00 | 1 | 1013.0 |
| 20260508115016 | 35 | 346 | 3.0 | 4.0 | 0.00 | 0.00 | 0.00 | 1 | 1013.1 |
| 20260508114541 | 36 | 346 | 3.0 | 4.0 | 0.00 | 0.00 | 0.00 | 1 | 1013.1 |
| 20260508114019 | 37 | 346 | 3.0 | 4.0 | 0.00 | 0.00 | 0.00 | 1 | 1013.3 |
| 20260508113519 | 38 | 346 | 1.0 | 5.0 | 0.00 | 0.00 | 0.00 | 1 | 1013.0 |
| 20260508113054 | 38 | 346 | 3.0 | 6.0 | 0.00 | 0.00 | 0.00 | 1 | 1013.0 |
| 20260508112515 | 39 | 346 | 4.0 | 6.0 | 0.00 | 0.00 | 0.00 | 1 | 1013.0 |
| 20260508112016 | 39 | 346 | 4.0 | 6.0 | 0.00 | 0.00 | 0.00 | 1 | 1013.0 |
| 20260508111539 | 39 | 360 | 2.0 | 4.0 | 0.00 | 0.00 | 0.00 | 1 | 1013.0 |
| 20260508111018 | 40 | 360 | 2.0 | 5.0 | 0.00 | 0.00 | 0.00 | 1 | 1013.1 |
| 20260508110514 | 41 | 360 | 2.0 | 6.0 | 0.00 | 0.00 | 0.00 | 1 | 1013.2 |
| 20260508110128 | 41 | 336 | 3.0 | 5.0 | 0.00 | 0.00 | 0.00 | 1 | 1013.2 |
| 20260508105516 | 42 | 336 | 2.0 | 5.0 | 0.00 | 0.00 | 0.00 | 1 | 1013.2 |
| 20260508105015 | 43 | 336 | 3.0 | 8.0 | 0.00 | 0.00 | 0.00 | 1 | 1013.2 |
| 20260508104603 | 44 | 336 | 6.0 | 8.0 | 0.00 | 0.00 | 0.00 | 1 | 1013.3 |
| 20260508104014 | 44 | 336 | 2.0 | 6.0 | 0.00 | 0.00 | 0.00 | 1 | 1013.3 |
| 20260508103515 | 42 | 336 | 5.0 | 6.0 | 0.00 | 0.00 | 0.00 | 1 | 1013.4 |
| 20260508103052 | 42 | 336 | 2.0 | 3.0 | 0.00 | 0.00 | 0.00 | 1 | 1013.4 |
| 20260508102517 | 43 | 336 | 1.0 | 4.0 | 0.00 | 0.00 | 0.00 | 1 | 1013.3 |
| 20260508102017 | 44 | 336 | 3.0 | 5.0 | 0.00 | 0.00 | 0.00 | 1 | 1013.3 |
| 20260508101555 | 44 | 336 | 4.0 | 5.0 | 0.00 | 0.00 | 0.00 | 1 | 1013.4 |
| 20260508101014 | 44 | 336 | 3.0 | 5.0 | 0.00 | 0.00 | 0.00 | 1 | 1013.4 |
| 20260508100514 | 44 | 336 | 4.0 | 5.0 | 0.00 | 0.00 | 0.00 | 1 | 1013.3 |
| 20260508100053 | 43 | 336 | 4.0 | 6.0 | 0.00 | 0.00 | 0.00 | 1 | 1013.5 |
| 20260508095515 | 43 | 324 | 4.0 | 5.0 | 0.00 | 0.00 | 0.00 | 1 | 1013.5 |
| 20260508095020 | 42 | 324 | 4.0 | 5.0 | 0.00 | 0.00 | 0.00 | 1 | 1013.5 |
| 20260508094831 | 43 | 324 | 4.0 | 6.0 | 0.00 | 0.00 | 0.00 | 1 | 1013.5 |
| 20260508094015 | 43 | 324 | 4.0 | 6.0 | 0.00 | 0.00 | 0.00 | 1 | 1013.5 |
| 20260508093515 | 43 | 339 | 4.0 | 6.0 | 0.00 | 0.00 | 0.00 | 1 | 1013.6 |
| 20260508093056 | 42 | 339 | 4.0 | 6.0 | 0.00 | 0.00 | 0.00 | 1 | 1013.6 |
| 20260508092516 | 42 | 307 | 4.0 | 5.0 | 0.00 | 0.00 | 0.00 | 1 | 1013.6 |
| 20260508092017 | 41 | 307 | 3.0 | 5.0 | 0.00 | 0.00 | 0.00 | 1 | 1013.4 |
| 20260508091848 | 41 | 288 | 3.0 | 5.0 | 0.00 | 0.00 | 0.00 | 1 | 1013.6 |
| 20260508091019 | 41 | 289 | 2.0 | 5.0 | 0.00 | 0.00 | 0.00 | 1 | 1013.4 |
| 20260508090518 | 41 | 289 | 3.0 | 7.0 | 0.00 | 0.00 | 0.00 | 1 | 1013.5 |
| 20260508090330 | 39 | 309 | 4.0 | 7.0 | 0.00 | 0.00 | 0.00 | 1 | 1013.5 |
| 20260508085516 | 39 | 347 | 4.0 | 5.0 | 0.00 | 0.00 | 0.00 | 1 | 1013.4 |
| 20260508085014 | 40 | 303 | 2.0 | 5.0 | 0.00 | 0.00 | 0.00 | 1 | 1013.4 |
| 20260508084612 | 40 | 303 | 2.0 | 5.0 | 0.00 | 0.00 | 0.00 | 1 | 1013.5 |
| 20260508084018 | 40 | 303 | 4.0 | 5.0 | 0.00 | 0.00 | 0.00 | 1 | 1013.5 |
| 20260508083516 | 41 | 325 | 3.0 | 5.0 | 0.00 | 0.00 | 0.00 | 1 | 1013.4 |
| 20260508083054 | 41 | 325 | 3.0 | 6.0 | 0.00 | 0.00 | 0.00 | 1 | 1013.3 |
| 20260508082514 | 42 | 325 | 3.0 | 9.0 | 0.00 | 0.00 | 0.00 | 1 | 1013.2 |
| 20260508082015 | 43 | 349 | 5.0 | 9.0 | 0.00 | 0.00 | 0.00 | 1 | 1013.3 |
| 20260508081613 | 44 | 5 | 6.0 | 11.0 | 0.00 | 0.00 | 0.00 | 1 | 1013.3 |
| 20260508081018 | 46 | 330 | 9.0 | 11.0 | 0.00 | 0.00 | 0.00 | 1 | 1013.2 |
| 20260508080516 | 46 | 338 | 9.0 | 11.0 | 0.00 | 0.00 | 0.00 | 1 | 1013.2 |
| 20260508080108 | 45 | 333 | 9.0 | 10.0 | 0.00 | 0.00 | 0.00 | 1 | 1013.3 |
| 20260508075518 | 43 | 338 | 5.0 | 9.0 | 0.00 | 0.00 | 0.00 | 1 | 1013.3 |
| 20260508075023 | 44 | 360 | 4.0 | 9.0 | 0.00 | 0.00 | 0.00 | 1 | 1013.3 |
| 20260508074604 | 45 | 337 | 7.0 | 9.0 | 0.00 | 0.00 | 0.00 | 1 | 1013.5 |
| 20260508074016 | 45 | 360 | 6.0 | 9.0 | 0.00 | 0.00 | 0.00 | 1 | 1013.6 |
| 20260508073518 | 44 | 313 | 6.0 | 8.0 | 0.00 | 0.00 | 0.00 | 1 | 1013.6 |
| 20260508073103 | 45 | 298 | 6.0 | 8.0 | 0.00 | 0.00 | 0.00 | 1 | 1013.6 |
| 20260508072519 | 46 | 294 | 5.0 | 9.0 | 0.00 | 0.00 | 0.00 | 1 | 1013.6 |
| 20260508072019 | 47 | 311 | 6.0 | 9.0 | 0.00 | 0.00 | 0.00 | 1 | 1013.5 |
| 20260508071605 | 48 | 307 | 7.0 | 9.0 | 0.00 | 0.00 | 0.00 | 1 | 1013.5 |
| 20260508071026 | 49 | 296 | 7.0 | 9.0 | 0.00 | 0.00 | 0.00 | 1 | 1013.4 |
| 20260508070518 | 49 | 311 | 7.0 | 9.0 | 0.00 | 0.00 | 0.00 | 1 | 1013.4 |
| 20260508070041 | 49 | 302 | 6.0 | 9.0 | 0.00 | 0.00 | 0.00 | 1 | 1013.5 |
| 20260508065515 | 49 | 296 | 7.0 | 10.0 | 0.00 | 0.00 | 0.00 | 1 | 1013.3 |
| 20260508065034 | 47 | 291 | 7.0 | 10.0 | 0.00 | 0.00 | 0.00 | 1 | 1013.4 |
| 20260508065031 | 44 | 252 | 7.0 | 10.0 | 0.00 | 0.00 | 0.00 | 1 | 1013.5 |
| 20260508064016 | 43 | 355 | 5.0 | 8.0 | 0.00 | 0.00 | 0.00 | 1 | 1013.4 |
| 20260508063524 | 42 | 5 | 4.0 | 8.0 | 0.00 | 0.00 | 0.00 | 1 | 1013.4 |
| 20260508063110 | 41 | 360 | 5.0 | 8.0 | 0.00 | 0.00 | 0.00 | 1 | 1013.4 |
| 20260508062516 | 41 | 360 | 3.0 | 5.0 | 0.00 | 0.00 | 0.00 | 1 | 1013.5 |
| 20260508062016 | 42 | 360 | 4.0 | 8.0 | 0.00 | 0.00 | 0.00 | 1 | 1013.4 |
| 20260508061617 | 42 | 360 | 4.0 | 8.0 | 0.00 | 0.00 | 0.00 | 1 | 1013.3 |
| 20260508061017 | 42 | 360 | 5.0 | 6.0 | 0.00 | 0.00 | 0.00 | 1 | 1013.4 |
| 20260508060522 | 42 | 360 | 3.0 | 8.0 | 0.00 | 0.00 | 0.00 | 1 | 1013.4 |
| 20260508060127 | 43 | 355 | 5.0 | 8.0 | 0.00 | 0.00 | 0.00 | 1 | 1013.3 |
| 20260508055519 | 43 | 355 | 4.0 | 6.0 | 0.00 | 0.00 | 0.00 | 1 | 1013.3 |
| 20260508055021 | 42 | 355 | 4.0 | 8.0 | 0.00 | 0.00 | 0.00 | 1 | 1013.2 |
| 20260508054640 | 43 | 355 | 4.0 | 6.0 | 0.00 | 0.00 | 0.00 | 1 | 1013.3 |
| 20260508054018 | 44 | 355 | 2.0 | 6.0 | 0.00 | 0.00 | 0.00 | 1 | 1013.3 |
| 20260508053516 | 45 | 355 | 3.0 | 8.0 | 0.00 | 0.00 | 0.00 | 1 | 1013.3 |
| 20260508053136 | 45 | 355 | 5.0 | 8.0 | 0.00 | 0.00 | 0.00 | 1 | 1013.1 |
| 20260508052517 | 46 | 344 | 4.0 | 8.0 | 0.00 | 0.00 | 0.00 | 1 | 1013.3 |
| 20260508052017 | 47 | 344 | 2.0 | 8.0 | 0.00 | 0.00 | 0.00 | 1 | 1013.1 |
| 20260508051928 | 50 | 360 | 4.0 | 8.0 | 0.00 | 0.00 | 0.00 | 1 | 1013.1 |
| 20260508051016 | 50 | 307 | 6.0 | 8.0 | 0.00 | 0.00 | 0.00 | 1 | 1013.0 |
| 20260508050525 | 49 | 355 | 2.0 | 9.0 | 0.00 | 0.00 | 0.00 | 1 | 1013.1 |
| 20260508050110 | 50 | 355 | 3.0 | 11.0 | 0.00 | 0.00 | 0.00 | 1 | 1013.1 |
| 20260508045523 | 50 | 350 | 9.0 | 11.0 | 0.00 | 0.00 | 0.00 | 1 | 1013.0 |
| 20260508045013 | 50 | 343 | 8.0 | 10.0 | 0.00 | 0.00 | 0.00 | 1 | 1013.1 |
| 20260508044557 | 50 | 350 | 8.0 | 10.0 | 0.00 | 0.00 | 0.00 | 1 | 1013.0 |
| 20260508044021 | 50 | 346 | 8.0 | 9.0 | 0.00 | 0.00 | 0.00 | 1 | 1013.1 |
| 20260508043520 | 50 | 344 | 8.0 | 9.0 | 0.00 | 0.00 | 0.00 | 1 | 1013.1 |
| 20260508043039 | 50 | 335 | 6.0 | 9.0 | 0.00 | 0.00 | 0.00 | 1 | 1013.1 |
| 20260508042516 | 50 | 304 | 5.0 | 7.0 | 0.00 | 0.00 | 0.00 | 1 | 1013.1 |
| 20260508042016 | 50 | 304 | 4.0 | 8.0 | 0.00 | 0.00 | 0.00 | 1 | 1013.0 |
| 20260508041551 | 49 | 304 | 6.0 | 8.0 | 0.00 | 0.00 | 0.00 | 1 | 1013.0 |
| 20260508041014 | 50 | 290 | 1.0 | 5.0 | 0.00 | 0.00 | 0.00 | 1 | 1012.8 |
| 20260508040517 | 51 | 290 | 2.0 | 5.0 | 0.00 | 0.00 | 0.00 | 1 | 1013.0 |
| 20260508040109 | 52 | 274 | 3.0 | 7.0 | 0.00 | 0.00 | 0.00 | 1 | 1013.1 |